Location: Pl�tzky
(52.0521°N, 11.8020°E)
Time: 03:53:05
(UTC+00:00)

USA 238 - Pass Details

Date: 22 November 2019
Orbit: 1023 x 1189 km, 63.4° (Epoch: 29 November)

Event Time Altitude Azimuth Distance (km) Brightness Sun altitude
Rises 17:21:45 0° 313° (NW) 3,912 7.2 -19.2°
Reaches altitude 10° 17:24:23 10° 315° (NW) 2,976 6.5 -19.6°
Maximum altitude 17:31:31 78° 42° (NE) 1,168 3.7 -20.7°
Enters shadow 17:36:08 25° 126° (SE) 2,140 4.9 -21.4°
